Location: Bussy-Saint-Georges
(48.8410°N, 2.7017°E)
Time: 22:14:36
(UTC+00:00)

Cosmos 839 Rocket - Pass Details

Date: 18 October 2021
Orbit: 964 x 2088 km, 65.9° (Epoch: 07 December)

Event Time Altitude Azimuth Distance (km) Brightness Sun altitude
Rises 19:05:37 0° 322° (NW) 4,539 8.2 -22.4°
Reaches altitude 10° 19:08:48 10° 322° (NW) 3,398 7.5 -22.9°
Maximum altitude 19:16:45 89° 236° (SW) 1,139 4.2 -24.2°
Enters shadow 19:19:27 40° 146° (SE) 1,526 4.6 -24.6°
